This is the latest recevied weather packets stored in our database for station/object IZ5TJI-3. If no packets are shown the sender has not sent any weather packets the latest 10 day(s).
| Time | Temp. | Humidity | Pressure | Rain* | Wind** | Luminosity | Snow |
|---|---|---|---|---|---|---|---|
| 1777667424 | 13.33° C | 35% | 1023.7 hPa | 0 mm | - | - | - |
| 1777666524 | 13.89° C | 31% | 1023.6 hPa | 0 mm | - | - | - |
| 1777665624 | 14.44° C | 31% | 1023.7 hPa | 0 mm | - | - | - |
| 1777664724 | 14.44° C | 31% | 1023.5 hPa | 0 mm | - | - | - |
| 1777663824 | 15° C | 30% | 1023.5 hPa | 0 mm | - | - | - |
| 1777662924 | 15° C | 30% | 1023.2 hPa | 0 mm | - | - | - |
| 1777662028 | 15° C | 30% | 1023.1 hPa | 0 mm | - | - | - |
| 1777661124 | 15.56° C | 29% | 1023 hPa | 0 mm | - | - | - |
| 1777660224 | 16.11° C | 28% | 1022.8 hPa | 0 mm | - | - | - |
| 1777659324 | 16.67° C | 27% | 1022.8 hPa | 0 mm | - | - | - |
| 1777658424 | 17.22° C | 27% | 1022.6 hPa | 0 mm | - | - | - |
| 1777657524 | 17.78° C | 26% | 1022.5 hPa | 0 mm | - | - | - |
| 1777656624 | 17.78° C | 27% | 1022.4 hPa | 0 mm | - | - | - |
| 1777655724 | 18.33° C | 27% | 1022.4 hPa | 0 mm | - | - | - |
| 1777654824 | 18.33° C | 26% | 1022.2 hPa | 0 mm | - | - | - |
| 1777653924 | 18.33° C | 27% | 1022.2 hPa | 0 mm | - | - | - |
| 1777653024 | 18.89° C | 27% | 1022.1 hPa | 0 mm | - | - | - |
| 1777652124 | 18.89° C | 26% | 1022.1 hPa | 0 mm | - | - | - |
| 1777651224 | 18.89° C | 26% | 1022.2 hPa | 0 mm | - | - | - |
| 1777650324 | 19.44° C | 26% | 1022.2 hPa | 0 mm | - | - | - |
| 1777649424 | 20° C | 26% | 1022.2 hPa | 0 mm | - | - | - |
| 1777648524 | 20° C | 26% | 1022.2 hPa | 0 mm | - | - | - |
| 1777647624 | 20° C | 27% | 1022.2 hPa | 0 mm | - | - | - |
| 1777646724 | 20° C | 26% | 1022.2 hPa | 0 mm | - | - | - |
| 1777645824 | 20° C | 27% | 1022.2 hPa | 0 mm | - | - | - |
* Rain latest hour (hover to see other rain measurements)
** Current wind speed in m/s (hover to see current wind gust speed)